Location: Manosque
(43.8357°N, 5.7909°E)
Time: 14:29:37
(UTC+02:00)

Tiangong 1 - Pass Details

Date: 31 March 2018
Orbit: 144 x 152 km, 42.7° (Epoch: 01 April)

Event Time Altitude Azimuth Distance (km) Brightness Sun altitude
Rises 07:20:02 0° 243° (WSW) 1,489 - -0.9°
Exits shadow 07:20:08 - 243° (WSW) 1,446 3.4 -0.9°
Maximum altitude 07:23:18 28° 165° (SSE) 354 1.0 -0.3°
Drops below altitude 10° 07:24:49 10° 100° (E) 755 4.3 -0.1°
Sets 07:26:37 0° 88° (E) 1,505 7.7 0.3°
